TimeEDT,TemperatureF,Dew PointF,Humidity,Sea Level PressureIn,VisibilityMPH,Wind Direction,Wind SpeedMPH,Gust SpeedMPH,PrecipitationIn,Events,Conditions,WindDirDegrees,DateUTC
12:53 AM,43.0,37.0,80,30.28,10.0,Calm,Calm,-,N/A,,Clear,0,2013-03-10 05:53:00
1:53 AM,41.0,37.0,86,30.28,10.0,Calm,Calm,-,N/A,,Clear,0,2013-03-10 06:53:00
3:53 AM,39.9,36.0,86,30.27,10.0,Calm,Calm,-,N/A,,Clear,0,2013-03-10 07:53:00
4:53 AM,39.9,36.0,86,30.26,10.0,Calm,Calm,-,N/A,,Clear,0,2013-03-10 08:53:00
5:53 AM,39.0,35.1,86,30.27,10.0,Calm,Calm,-,N/A,,Clear,0,2013-03-10 09:53:00
6:53 AM,37.9,35.1,89,30.27,10.0,Calm,Calm,-,N/A,,Clear,0,2013-03-10 10:53:00
8:53 AM,43.0,37.9,82,30.30,10.0,Calm,Calm,-,N/A,,Clear,0,2013-03-10 12:53:00
9:53 AM,50.0,39.9,68,30.31,10.0,Calm,Calm,-,N/A,,Clear,0,2013-03-10 13:53:00
10:53 AM,55.9,37.9,51,30.30,10.0,Calm,Calm,-,N/A,,Clear,0,2013-03-10 14:53:00
11:53 AM,61.0,37.0,41,30.30,10.0,SSW,4.6,-,N/A,,Clear,200,2013-03-10 15:53:00
12:53 PM,62.1,35.1,37,30.29,10.0,Variable,3.5,-,N/A,,Clear,0,2013-03-10 16:53:00
1:53 PM,66.0,35.1,32,30.25,10.0,Calm,Calm,-,N/A,,Clear,0,2013-03-10 17:53:00
2:53 PM,68.0,34.0,28,30.21,10.0,Variable,4.6,-,N/A,,Clear,0,2013-03-10 18:53:00
3:53 PM,69.1,30.9,24,30.20,10.0,Variable,3.5,-,N/A,,Clear,0,2013-03-10 19:53:00
4:53 PM,70.0,30.0,23,30.19,10.0,Variable,5.8,-,N/A,,Clear,0,2013-03-10 20:53:00
5:53 PM,69.1,30.9,24,30.19,10.0,SE,4.6,-,N/A,,Clear,140,2013-03-10 21:53:00
6:53 PM,66.9,34.0,30,30.18,10.0,SE,3.5,-,N/A,,Clear,130,2013-03-10 22:53:00
7:53 PM,64.0,35.1,34,30.19,10.0,East,3.5,-,N/A,,Clear,100,2013-03-10 23:53:00
8:53 PM,59.0,37.9,46,30.21,10.0,Calm,Calm,-,N/A,,Clear,0,2013-03-11 00:53:00
9:53 PM,59.0,37.9,46,30.21,10.0,ESE,3.5,-,N/A,,Clear,110,2013-03-11 01:53:00
10:53 PM,57.0,39.0,51,30.22,10.0,Variable,3.5,-,N/A,,Clear,0,2013-03-11 02:53:00
11:53 PM,55.0,39.0,55,30.22,10.0,Calm,Calm,-,N/A,,Clear,0,2013-03-11 03:53:00
12:53 AM,53.1,35.1,50,30.21,10.0,Calm,Calm,-,N/A,,Clear,0,2013-03-11 04:53:00